Simultaneous Nadir Overpasses (SNOs) Predictions

Prediction of SNOs between FY3D and TERRA Satellite Orbit:

Table of predicted SNOs for the next 14.0 days since TLE Epoch: 7/27/2024
Index Date (FY3D) Time (FY3D) Lat,Lon (FY3D) SZA (FY3D ) Date (TERRA) Time (TERRA) Lat,Lon (TERRA) SZA (TERRA ) Distance(km) Time Diff (sec)
1 07/28/2024 15:08:30 76.22, -47.85 57.39 07/28/2024 15:09:40 76.12, -46.62 57.28 34.44 70
2 07/28/2024 15:59:08 -75.94, 120.46 122.90 07/28/2024 15:59:05 -75.93, 120.49 122.90 0.72 3
3 07/28/2024 16:49:42 75.36, -70.34 56.53 07/28/2024 16:48:36 75.41, -73.33 56.60 84.14 66
4 07/31/2024 03:11:59 -75.96, -47.79 122.27 07/31/2024 03:12:08 -75.98, -47.69 122.26 3.10 9
5 07/31/2024 04:02:43 75.85, 119.90 57.63 07/31/2024 04:01:30 75.90, 119.76 57.68 6.95 73
6 08/02/2024 14:24:50 -76.00, 143.93 121.61 08/02/2024 14:25:11 -75.99, 144.04 121.62 3.29 21
7 08/02/2024 15:15:35 75.93, -48.54 58.34 08/02/2024 15:14:33 75.92, -48.51 58.32 2.12 62
8 08/05/2024 01:37:40 -75.99, -24.22 120.95 08/05/2024 01:38:13 -76.02, -24.16 120.93 3.28 33
9 08/05/2024 02:28:25 75.93, 143.31 58.99 08/05/2024 02:27:35 75.95, 143.28 59.01 1.76 50
10 08/07/2024 12:50:30 -76.00, 167.60 120.26 08/07/2024 12:51:15 -76.02, 167.55 120.24 2.75 45
11 08/07/2024 13:41:15 75.94, -24.87 59.69 08/07/2024 13:40:37 75.95, -25.01 59.69 3.92 38
12 08/10/2024 00:03:20 -76.06, -0.76 119.49 08/10/2024 00:04:15 -76.04, -0.68 119.51 2.87 55
13 08/10/2024 00:54:05 76.00, 166.76 60.46 08/10/2024 00:53:37 75.96, 166.75 60.42 3.80 28



Historial Predications of SNOs between FY3D and TERRA
